Simultaneous Nadir Overpasses (SNOs) Predictions

Prediction of SNOs between LANDSAT-8 and NOAA-19 Satellite Orbit:

Table of predicted SNOs for the next 14.0 days since TLE Epoch: 1/14/2023
Index Date (LANDSAT-8) Time (LANDSAT-8) Lat,Lon (LANDSAT-8) SZA (LANDSAT-8 ) Date (NOAA-19) Time (NOAA-19) Lat,Lon (NOAA-19) SZA (NOAA-19 ) Distance(km) Time Diff (sec)
1 01/15/2023 06:05:21 -80.93, -54.34 76.42 01/15/2023 06:05:09 -80.91, -54.47 76.45 2.63 12
2 01/17/2023 11:39:03 80.91, 41.98 103.10 01/17/2023 11:37:50 80.92, 41.99 103.09 1.23 73
3 01/17/2023 12:28:30 -80.90,-150.41 76.91 01/17/2023 12:28:52 -80.91,-150.39 76.89 1.28 22
4 01/19/2023 18:02:10 80.92, -53.58 102.66 01/19/2023 18:01:32 80.91, -53.47 102.65 2.19 38
5 01/19/2023 18:51:37 -80.92, 114.05 77.35 01/19/2023 18:52:34 -80.91, 113.99 77.35 1.52 57
6 01/22/2023 00:25:17 80.93,-149.28 102.17 01/22/2023 00:25:15 80.91,-149.36 102.15 2.16 2
7 01/24/2023 05:58:58 -80.93, -52.75 78.38 01/24/2023 05:58:01 -80.92, -52.92 78.42 3.12 57
8 01/24/2023 06:48:24 80.92, 114.86 101.62 01/24/2023 06:48:58 80.92, 114.68 101.61 3.25 34
9 01/26/2023 12:22:05 -80.91,-148.74 78.98 01/26/2023 12:21:43 -80.92,-148.77 78.98 0.97 22



Historial Predications of SNOs between LANDSAT-8 and NOAA-19
